Location: Narrabri
(30.3170°S, 149.7830°E)
Time: 14:36:13
(UTC+11:00)

N. Korean satellite - Pass Details

Date: 13 October 2017
Orbit: 459 x 517 km, 97.2° (Epoch: 19 October)

Event Time Altitude Azimuth Distance (km) Brightness Sun altitude
Rises 20:17:03 0° 182° (S) 2,668 10.6 -14.9°
Reaches altitude 10° 20:19:20 10° 193° (SSW) 1,769 9.8 -15.4°
Maximum altitude 20:22:41 30° 254° (WSW) 961 8.8 -16.1°
Drops below altitude 10° 20:25:59 10° 315° (NW) 1,731 9.7 -16.7°
Sets 20:28:12 0° 326° (NNW) 2,600 10.4 -17.2°
